Home > Weather > Jefferson City > Past weeks

Flag for U.S.A. Weather for the Past 2 Weeks in Jefferson City, Missouri, U.S.A.

Now
25 °F

Clear.


Feels Like: 16 °F
Forecast: 28 / 49 °F
Wind: 8 mph from Southeast

Location: Jefferson City Memorial Airport

Current Time: Feb 6, 2016 at 6:27:49 AM

Latest Report: Feb 6, 2016 at 5:53 AM


Visibility: 10 mi

Pressure: 30.26 "Hg

Humidity: 81%

Dew point: 20 °F

Location of Jefferson CityLocation

Historic Weather in Jefferson City — Graph

°F

Jefferson City Temperature Yesterday

Maximum temperature yesterday: 44 °F (at 4:53 PM)
Minimum temperature yesterday: 22 °F (at 3:53 AM)
Average temperature yesterday: 31 °F

High & Low Weather Summary for the Past Weeks

 TemperatureHumidityPressure
High66 °F (Feb 2, 2:53 PM)96% (Jan 27, 5:53 AM)30.45 "Hg (Jan 27, 5:53 AM)
Low19 °F (Jan 27, 7:53 AM)19% (Feb 2, 2:53 PM)29.38 "Hg (Feb 2, 1:53 PM)
Average38 °F65%29.99 "Hg
* Reported Jan 22 4:53 AM — Feb 6 4:53 AM, Jefferson City, Weather by CustomWeather, © 2016

Note: Actual official high and low records may vary slightly from our data, if they occured in-between our weather recording intervals... More about our weather records

Advertising

Jefferson City Weather History for the Previous 24 Hours

 ConditionsComfort  
Time TempWeatherWind HumidityBarometerVisibility
4:53 AM
Sat, Feb 6
28 °FPassing clouds.6 mph75%30.27 "Hg10 mi
3:53 AM29 °FOvercast.6 mph72%30.27 "Hg10 mi
2:53 AM29 °FOvercast.No wind72%30.28 "Hg10 mi
1:53 AM31 °FOvercast.6 mph64%30.29 "Hg10 mi
12:53 AM32 °FPassing clouds.5 mph61%30.29 "Hg10 mi
11:53 PM
Fri, Feb 5
31 °FOvercast.No wind67%30.29 "Hg10 mi
10:53 PM31 °FMostly cloudy.3 mph67%30.30 "Hg10 mi
9:53 PM31 °FMostly cloudy.No wind64%30.30 "Hg10 mi
8:53 PM31 °FMostly cloudy.No wind64%30.31 "Hg10 mi
7:53 PM32 °FClear.No wind59%30.32 "Hg10 mi
6:53 PM33 °FClear.No wind56%30.32 "Hg10 mi
5:53 PM40 °FClear.5 mph41%30.32 "Hg10 mi
4:53 PM44 °FSunny.No wind35%30.34 "Hg10 mi
3:53 PM43 °FSunny.5 mph38%30.33 "Hg10 mi
2:53 PM41 °FSunny.5 mph39%30.33 "Hg10 mi
1:53 PM39 °FSunny.No wind43%30.36 "Hg10 mi
12:53 PM37 °FSunny.No wind44%30.39 "Hg10 mi
11:53 AM34 °FSunny.No wind56%30.43 "Hg10 mi
10:53 AM32 °FSunny.No wind66%30.44 "Hg10 mi
9:53 AM31 °FSunny.No wind69%30.45 "Hg10 mi
8:53 AM27 °FSunny.3 mph81%30.45 "Hg9 mi
7:53 AM23 °FSunny.No wind88%30.43 "Hg9 mi
6:53 AM23 °FClear.No wind85%30.42 "Hg10 mi
Weather by CustomWeather, © 2016

See weather overviewHow to use our weather pages